TimeEDT,TemperatureF,Dew PointF,Humidity,Sea Level PressureIn,VisibilityMPH,Wind Direction,Wind SpeedMPH,Gust SpeedMPH,PrecipitationIn,Events,Conditions,WindDirDegrees,DateUTC
12:53 AM,34.0,30.0,85,30.07,9.0,NNE,6.9,-,N/A,,Mostly Cloudy,20,2014-03-21 04:53:00
1:53 AM,33.1,28.9,85,30.07,8.0,Calm,Calm,-,N/A,,Clear,0,2014-03-21 05:53:00
2:53 AM,34.0,28.9,82,30.08,8.0,Calm,Calm,-,N/A,,Overcast,0,2014-03-21 06:53:00
3:53 AM,34.0,28.9,82,30.06,8.0,NNE,3.5,-,N/A,,Overcast,30,2014-03-21 07:53:00
4:53 AM,33.1,28.0,82,30.06,8.0,NE,3.5,-,N/A,,Overcast,40,2014-03-21 08:53:00
5:53 AM,33.1,28.0,82,30.08,8.0,Calm,Calm,-,N/A,,Overcast,0,2014-03-21 09:53:00
6:53 AM,33.1,28.9,85,30.07,7.0,East,3.5,-,0.00,,Overcast,80,2014-03-21 10:53:00
7:53 AM,34.0,28.0,79,30.07,8.0,ESE,5.8,-,N/A,,Overcast,110,2014-03-21 11:53:00
8:53 AM,35.1,28.9,78,30.06,8.0,ESE,4.6,-,N/A,,Overcast,110,2014-03-21 12:53:00
9:53 AM,39.0,28.0,65,30.06,9.0,East,6.9,-,N/A,,Clear,100,2014-03-21 13:53:00
10:53 AM,43.0,28.0,56,30.06,10.0,East,5.8,-,N/A,,Clear,80,2014-03-21 14:53:00
11:53 AM,46.9,30.9,54,30.05,10.0,ESE,8.1,-,N/A,,Clear,110,2014-03-21 15:53:00
12:53 PM,50.0,30.9,48,30.02,10.0,Variable,6.9,-,N/A,,Clear,0,2014-03-21 16:53:00
1:53 PM,53.1,32.0,45,29.99,10.0,SE,5.8,-,N/A,,Clear,140,2014-03-21 17:53:00
2:53 PM,57.0,33.1,40,29.95,-9999.0,North,-9999.0,-,N/A,,Clear,0,2014-03-21 18:53:00
3:53 PM,60.1,33.1,36,29.92,10.0,ESE,6.9,-,N/A,,Clear,110,2014-03-21 19:53:00
4:53 PM,64.0,28.9,27,29.88,10.0,SSW,13.8,20.7,N/A,,Clear,210,2014-03-21 20:53:00
5:53 PM,64.9,28.0,25,29.86,10.0,SW,11.5,19.6,N/A,,Clear,220,2014-03-21 21:53:00
6:53 PM,63.0,28.9,28,29.84,10.0,SSW,9.2,-,N/A,,Clear,200,2014-03-21 22:53:00
7:53 PM,61.0,28.9,30,29.84,10.0,South,9.2,-,N/A,,Clear,190,2014-03-21 23:53:00
8:53 PM,59.0,28.9,32,29.84,10.0,South,8.1,-,N/A,,Clear,190,2014-03-22 00:53:00
9:53 PM,57.9,30.0,35,29.83,10.0,South,10.4,-,N/A,,Clear,180,2014-03-22 01:53:00
10:53 PM,57.9,28.9,33,29.81,10.0,South,12.7,-,N/A,,Clear,190,2014-03-22 02:53:00
11:53 PM,59.0,26.1,28,29.80,10.0,SSW,18.4,28.8,N/A,,Clear,210,2014-03-22 03:53:00